Regional Weather Roundup
Issued by NWS

Home | Current Version | Previous Version | Graphics & Text | Print | Product List | Glossary Off
Versions: 1 2 3 4 5 6 7 8 9 10 11 12 13 14 15 16 17 18 19 20 21 22 23 24 25 26 27 28 29 30 31 32 33 34 35 36 37 38 39 40 41 42 43 44 45 46 47 48 49 50

000
ASUS43 KMKX 300359
RWRWI

WISCONSIN REGIONAL WEATHER ROUNDUP
NATIONAL WEATHER SERVICE MILWAUKEE/SULLIVAN WI
1100 PM CDT SUN MAR 29 2015

NOTE: "FAIR" INDICATES FEW OR NO CLOUDS BELOW 12,000 FEET WITH NO
SIGNIFICANT WEATHER AND/OR OBSTRUCTIONS TO VISIBILITY.

WIZ001-002-006>008-014>016-023>028-300500-
NORTHWEST WISCONSIN

CITY           SKY/WX    TMP DP  RH WIND       PRES   REMARKS
SUPERIOR ARPT  FAIR      38  26  60 SW6       29.85S WCI  34
ASHLAND        CLEAR     36  25  64 SW7       29.83R WCI  30
HAYWARD        FAIR      38  25  59 CALM      29.86R
SIREN          CLEAR     38  25  59 W6        29.90R WCI  33
CUMBERLAND     CLEAR     37  27  65 W10       29.88R WCI  30
RICE LAKE      CLEAR     40  26  58 W8        29.90R WCI  34
CHETEK         CLEAR     40  27  57 W7        29.89R
LADYSMITH      PTCLDY    36  28  73 W6        29.87R WCI  31
EAU CLAIRE     CLEAR     40  25  55 W7        29.90R
MENOMONIE      CLEAR     41  27  57 W8        29.91R
NEW RICHMOND   CLEAR     35  26  68 W3        29.93R
OSCEOLA        CLEAR     36  27  69 W6        29.95R WCI  31
$$

WIZ003>005-009-010-017-018-300500-
NORTH CENTRAL WISCONSIN

CITY           SKY/WX    TMP DP  RH WIND       PRES   REMARKS
MANITOWISH WTR CLEAR     33  29  86 NW6       29.78R WCI  27
ARBOR VITAE    PTCLDY    37  31  82 NW6       29.78R WCI  32
WOODRUFF       PTCLDY    37  31  82 NW6       29.78R WCI  32
RHINELANDER    PTCLDY    35  29  78 W9        29.79R WCI  28
EAGLE RIVER    CLOUDY    35  28  77 NW12      29.76R WCI  27
LAND O LAKES   CLOUDY    35  31  83 NW8       29.76R WCI  29
PHILLIPS       CLOUDY    34  29  82 CALM      29.82R
TOMAHAWK       CLEAR     36  28  73 W6G16     29.81R WCI  31
MEDFORD        CLOUDY    35  30  82 W6        29.84R WCI  30
MERRILL        CLOUDY    37  31  78 NW6       29.82R WCI  32
$$

WIZ029-030-035-036-043>047-300500-
CENTRAL WISCONSIN

CITY           SKY/WX    TMP DP  RH WIND       PRES   REMARKS
WAUSAU         CLOUDY    38  31  76 NW7       29.82R WCI  33
MOSINEE        MOCLDY    36  32  87 W7        29.84R WCI  30
MARSHFIELD     MOCLDY    36  29  75 W6        29.85R WCI  31
STEVENS POINT  MOCLDY    36  30  80 W3        29.85R
WAUPACA        MOCLDY    42  31  65 W10G17    29.84R
WAUTOMA        NOT AVBL
WISC RAPIDS    MOCLDY    35  29  78 W5        29.88R WCI  31
CAMP DOUGLAS   NOT AVBL
$$

WIZ011>013-019>022-031-037>040-048>050-300500-
NORTHEAST WISCONSIN

CITY           SKY/WX    TMP DP  RH WIND       PRES   REMARKS
ANTIGO         CLOUDY    36  30  80 NW13      29.78S WCI  27
SHAWANO        MOCLDY    40  32  73 NW9G16    29.80R WCI  34
OCONTO         PTCLDY    38  32  78 W8G16     29.76R WCI  32
STURGEON BAY   PTCLDY    37  30  75 W14       29.76R WCI  29
GREEN BAY      CLEAR     39  31  72 W13       29.80R WCI  31
MANITOWOC      NOT AVBL
APPLETON       PTCLDY    39  28  65 NW17G23   29.83R WCI  30
CLINTONVILLE   MOCLDY    39  30  70 NW12G20   29.81R WCI  32
OSHKOSH        MOCLDY    39  30  70 W8        29.85R WCI  33
$$

WIZ032>034-041-042-053>061-300500-
SOUTHWEST WISCONSIN

CITY           SKY/WX    TMP DP  RH WIND       PRES   REMARKS
LA CROSSE      CLEAR     45  28  51 W9        29.93R
SPARTA         PTCLDY    42  26  53 W5        29.92R
VIROQUA        CLEAR     40  30  66 W10       29.92R WCI  34
BOSCOBEL       CLEAR     45  28  51 W6        29.95R
PRAIRIE DU CHI CLEAR     43  28  55 W12       29.96R
PLATTEVILLE    CLEAR     40  31  68 W9        29.95R WCI  34
$$

WIZ056-057-062-063-064-067-068-300500-
SOUTH CENTRAL WISCONSIN

CITY           SKY/WX    TMP DP  RH WIND       PRES   REMARKS
REEDSBURG      CLEAR     32  31  97 CALM      29.89R
BARABOO/DELLS  CLEAR     37  35  93 W6        29.89R WCI  32
LONE ROCK      NOT AVBL
MINERAL POINT  FAIR      43  30  61 W13       29.92R
MADISON        PTCLDY    32  30  92 CALM      29.90R
MIDDLETON      CLEAR     38  33  81 W6        29.89R WCI  34
WATERTOWN      MOCLDY    39  35  86 W5        29.88R
MONROE         CLEAR     39  32  75 W16       29.90R WCI  30
JANESVILLE     CLEAR     37  32  81 W5        29.90R WCI  34
$$

WIZ051-052-058>065-066-070>072-300500-
SOUTHEAST WISCONSIN

CITY           SKY/WX    TMP DP  RH WIND       PRES   REMARKS
MILWAUKEE      PTCLDY    42  29  59 W8        29.88R
WAUKESHA       CLEAR     36  32  87 W8        29.89R WCI  29
MILWAUKEE/TIMM PTCLDY    39  28  65 W9        29.88R WCI  33
RACINE         CLEAR     41  31  67 W9        29.90R
BURLINGTON     CLEAR     35  32  88 W5        29.90R WCI  31
KENOSHA        PTCLDY    36  33  89 W7        29.90R WCI  30
FOND DU LAC    CLOUDY    40  30  67 W9        29.86R WCI  34
SHEBOYGAN      PTCLDY    39  30  70 W14G21    29.83R WCI  31
WEST BEND      CLOUDY    39  28  65 W7G17     29.85R WCI  34
JUNEAU         CLOUDY    37  32  84 W6        29.88R WCI  32
$$

LSZ147-162-300500-
LAKE SUPERIOR

STATION/POSITION TIME  TEMP    WIND        PRES    WAVE
                       AIR SEA DIR/SP/G            HT/PER
                 (UTC) (F)     (DEG/KT/KT) (MB)    (FT/S)
DEVILS ISLAND    0300   39     260/ 16/ 19 1009.2R
PORT WING        0300   41     240/  8/ 11 1010.5
SAXON HARBOR     0300   38     220/  5/  9 1009.1R
$$

LMZ867-665-643>646-300500-
LAKE MICHIGAN

STATION/POSITION TIME  TEMP    WIND        PRES    WAVE
                       AIR SEA DIR/SP/G            HT/PER
                 (UTC) (F)     (DEG/KT/KT) (MB)    (FT/S)
NORTHPORT PIER   0300   38     290/ 10/ 18 1004.7R
SISTER BAY       0317   35     290/ 12/ 13   N/A
KEWAUNEE LAKESHO 0300   40     290/  7/ 21 1006.4R
SHEBOYGAN LAKESH 0300   42     300/ 16/ 18 1010.0R
PORT WASHINGTON  0340   42     300/  8/ 12 1011.5R
MILWAUKEE LAKESH 0300   44     310/ 19/ 28   N/A
KENOSHA   LAKESH 0300   44     290/ 11/ 19 1011.9R
$$

TC  - TEMPERATURE IN CELSIUS
VSB - VISIBILITY IN STATUTE MILES
WCI - WIND CHILL INDEX
HX  - HEAT INDEX



USA.gov is the U.S. government's official web portal to all federal, state and local government web resources and services.